[[{"header":{"parameterUnit":"m.s-1","parameterCategory":1,"la1":30.2992,"la2":30.254,"lo1":-89.0895,"lo2":-89.0443,"dy":0.0025,"dx":0.0025,"nx":19,"ny":19,"refTime":"2026-05-09T21:00:00:Z","depth":0,"parameterNumber":2,"parameterNumberName":"U-component_of_WINDS"},"data":[0,0,0,-2.8275,-2.828,-2.849,-2.8491,-2.8803,-2.8806,0,0,0,0,0,0,0,0,0,0,0,-2.8231,-2.8234,-2.8274,-2.828,-2.849,-2.8491,-2.8802,-2.8806,0,0,0,0,0,0,0,0,0,0,0,-2.823,-2.8233,-2.8236,-2.8281,-2.849,-2.8491,-2.8801,-2.8629,0,0,0,0,0,0,0,0,0,0,-2.8418,-2.8394,-2.8232,-2.8237,-2.8282,-2.849,-2.8491,-2.862,-2.864,-2.8723,0,-2.8796,0,-2.8806,-2.8829,-2.883,0,0,0,-2.8268,-2.8378,-2.8417,-2.8237,-2.8284,-2.8489,-2.8392,-2.8631,-2.8653,-2.875,-2.88,-2.8811,-2.8811,-2.8831,-2.8832,-2.9341,-2.9344,0,0,-2.8256,-2.8281,-2.8402,-2.8432,-2.8395,-2.8385,-2.8399,-2.8644,-2.8703,-2.8801,-2.8818,-2.8816,-2.8833,-2.8836,-2.9339,-2.9342,0,0,0,-2.8231,-2.8273,-2.8305,-2.8421,-2.8455,-2.8392,-2.8407,-2.8692,-2.87,-2.8821,-2.882,-2.8835,-2.8839,-2.9335,-2.934,-2.9511,0,0,0,-2.8224,-2.8258,-2.8301,-2.8318,-2.8451,-2.8575,-2.8451,-2.8683,-2.871,-2.8818,-2.8835,-2.8843,-2.9332,-2.9338,-2.9499,-2.959,0,0,0,-2.8211,-2.8257,-2.8293,-2.8319,-2.8409,-2.857,-2.8592,-2.8688,-2.8711,-2.883,-2.8843,-2.933,-2.9337,-2.9488,-2.9572,-2.9735,0,0,0,-2.8207,-2.8442,-2.8296,-2.8559,-2.8408,-2.867,-2.859,-2.8785,-2.8908,-2.8837,-2.9332,-2.9339,-2.9485,-2.9562,-2.9724,-2.9879,-2.9944,0,0,-2.8518,-2.848,-2.8633,-2.8508,-2.8803,-2.8637,-2.8959,-2.905,-2.9042,-2.9244,-2.9256,-2.9503,-2.9571,-2.9732,-3.0292,-3.0344,0,0,0,-2.874,-2.8851,-2.8924,-2.9039,-2.9111,-2.9183,-2.9221,-2.9256,-2.9425,-2.9148,-2.9601,-2.9642,-2.9735,-2.9809,-2.9854,-2.9936,-2.9373,-2.9372,-2.9371,-2.922,-2.9192,-2.9445,-2.9444,-2.9558,-2.9595,-2.9687,-2.9741,-2.9682,-2.979,-2.9852,-3.0194,-3.0281,-3.0314,-3.04,-2.9927,-2.9928,-2.9928,-2.9929,-2.9677,-2.9833,-2.9746,-2.9961,-2.9934,-3.0117,-3.0164,-3.0117,-3.0288,-3.0144,-3.0226,-3.0077,-3.0372,-3.0446,-2.9941,-2.9939,-2.9937,-2.9936,-2.9935,-2.9993,-3.0063,-3.0097,-3.0263,-3.0396,-3.0388,-3.0556,-3.0524,-3.0497,-3.0576,-3.0643,-3.064,-3.0639,-3.0609,-3.061,-3.0611,-3.0612,-3.0613,-3.0614,-3.031,-3.0342,-3.0485,-3.0581,-3.0653,-3.0745,-3.0785,-3.0858,-3.0931,-3.0896,-3.0896,-3.0833,-3.0402,-3.0298,-3.0632,-3.0629,-3.0627,-3.0625,-3.0624,-3.0795,-3.0679,-3.09,-3.0972,-3.1086,-3.1223,-3.1178,-3.1329,-3.1385,-3.1471,-3.1388,-3.1072,-3.1034,-3.0999,-3.0914,-3.1387,-3.1387,-3.1387,-3.1387,-3.1066,-3.104,-3.1261,-3.1379,-3.1491,-3.1473,-3.1733,-3.1769,-3.1789,-3.1824,-3.1749,-3.1631,-3.1596,-3.1579,-3.1532,-3.1452,-3.2052,-3.2052,-3.2053,-3.1366,-3.135,-3.1574,-3.1586,-3.1673,-3.1752,-3.1996,-3.2142,-3.2141,-3.208,-3.1852,-3.1824,-3.1633,-3.157,-3.1509,-3.1435,-3.1288,0,0]},{"header":{"parameterUnit":"m.s-1","parameterCategory":1,"la1":30.2992,"la2":30.254,"lo1":-89.0895,"lo2":-89.0443,"dy":0.0025,"dx":0.0025,"nx":19,"ny":19,"refTime":"2026-05-09T21:00:00:Z","depth":0,"parameterNumber":3,"parameterNumberName":"V-component_of_WINDS"},"data":[0,0,0,1.3569,1.3567,1.3466,1.3465,1.3359,1.3358,0,0,0,0,0,0,0,0,0,0,0,1.361,1.361,1.3569,1.3567,1.3466,1.3465,1.3359,1.3358,0,0,0,0,0,0,0,0,0,0,0,1.361,1.361,1.3609,1.3566,1.3466,1.3465,1.3359,1.3428,0,0,0,0,0,0,0,0,0,0,1.3522,1.3571,1.361,1.3609,1.3566,1.3466,1.3465,1.3431,1.3424,1.3413,0,1.3405,0,1.3379,1.3352,1.3352,0,0,0,1.3559,1.3577,1.3539,1.3609,1.3565,1.3466,1.3509,1.3426,1.3418,1.3404,1.3403,1.3399,1.3378,1.3351,1.3351,1.331,1.331,0,0,1.3565,1.3599,1.3545,1.3534,1.3548,1.3513,1.3506,1.3421,1.3424,1.3403,1.3396,1.3376,1.3351,1.335,1.331,1.331,0,0,0,1.3586,1.3603,1.3567,1.3539,1.3519,1.351,1.3503,1.3428,1.3413,1.3394,1.3375,1.335,1.3349,1.3309,1.331,1.335,0,0,0,1.3589,1.3615,1.357,1.359,1.3521,1.3472,1.3512,1.3419,1.3408,1.3375,1.335,1.3348,1.3309,1.3309,1.3348,1.3364,0,0,0,1.3613,1.3618,1.3607,1.3592,1.3549,1.3472,1.3452,1.3416,1.3396,1.3352,1.3348,1.3309,1.3309,1.3347,1.3362,1.3363,0,0,0,1.3649,1.3646,1.3608,1.3597,1.355,1.3497,1.3452,1.3412,1.3378,1.335,1.3309,1.331,1.3346,1.336,1.3361,1.337,1.3377,0,0,1.3665,1.365,1.364,1.3603,1.3565,1.3509,1.3478,1.3416,1.3382,1.3337,1.3335,1.3349,1.3362,1.3362,1.34,1.3405,0,0,0,1.3657,1.3651,1.3633,1.36,1.3551,1.351,1.3449,1.3425,1.3384,1.3365,1.3348,1.3354,1.3354,1.3357,1.3361,1.3358,1.3312,1.3312,1.3312,1.373,1.3683,1.3664,1.3605,1.3574,1.3509,1.3481,1.3438,1.3403,1.34,1.3387,1.3415,1.3419,1.3422,1.342,1.3387,1.3387,1.3387,1.3387,1.3749,1.3733,1.3682,1.3645,1.3596,1.3566,1.3503,1.3478,1.3444,1.3421,1.3418,1.3399,1.343,1.3425,1.339,1.3389,1.3389,1.3388,1.3388,1.3794,1.3778,1.3746,1.3693,1.3657,1.3597,1.3565,1.3522,1.3482,1.3479,1.346,1.346,1.3454,1.3473,1.3473,1.3473,1.3473,1.3473,1.3473,1.3853,1.3816,1.3793,1.3737,1.3709,1.3667,1.36,1.3572,1.3531,1.3502,1.3502,1.3467,1.344,1.3435,1.3474,1.3474,1.3474,1.3474,1.3474,1.3892,1.3875,1.384,1.3812,1.3742,1.3709,1.3652,1.3599,1.357,1.3556,1.352,1.3506,1.3489,1.3485,1.348,1.3529,1.3529,1.3529,1.3529,1.3931,1.3916,1.3868,1.3826,1.3779,1.3723,1.3686,1.3633,1.3576,1.3556,1.3542,1.3531,1.3529,1.3513,1.3508,1.3504,1.3557,1.3557,1.3557,1.3953,1.3931,1.3907,1.3847,1.3788,1.3739,1.3703,1.3657,1.359,1.3557,1.3538,1.3537,1.352,1.3517,1.3487,1.3481,1.3471,0,0]}]]